This demonstration page uses our WeatherBlox Daily Observations layout. Learn more.

Left ArrowRight Arrow

Hourly Observations for September 1, 2022

Temp ( °F °C ) Dew Point ( °F °C ) Humidity (%) Winds ( mph kmh ) Pressure ( in mb ) Visibility ( mi km ) Precip ( " mm )
12:53 am 00:53 Clear 72 22.2 58 14.4 61 61 S 6 9 29.96 1015 10 16 0.00 0.00
1:53 am 01:53 Mostly Clear 71 21.7 59 15 66 66 W 8 13 29.97 1015 10 16 0.00 0.00
2:53 am 02:53 Clear 70 21.1 59 15 68 68 WNW 3 6 29.97 1015 10 16 0.00 0.00
3:53 am 03:53 Clear 69 20.6 61 16.1 75 75 Calm 29.96 1015 10 16 0.00 0.00
4:53 am 04:53 Clear 68 20 60 15.6 76 76 S 9 15 29.98 1015 10 16 0.00 0.00
5:53 am 05:53 Clear 67 19.4 60 15.6 79 79 Calm 29.99 1016 10 16 0.00 0.00
6:53 am 06:53 Clear 67 19.4 60 15.6 79 79 Calm 29.99 1016 10 16 0.00 0.00
7:53 am 07:53 Sunny 66 18.9 61 16.1 84 84 Calm 30.01 1016 10 16 0.00 0.00
8:53 am 08:53 Sunny 66 18.9 62 16.7 87 87 Calm 30.01 1016 10 16 0.00 0.00
9:53 am 09:53 Sunny 76 24.4 61 16.1 60 60 W 6 9 30.00 1016 10 16 0.00 0.00
10:53 am 10:53 Sunny 80 26.7 61 16.1 52 52 SSW 8 13 29.98 1015 10 16 0.00 0.00
11:53 am 11:53 Sunny 81 27.2 59 15 47 47 S 8 13 29.98 1015 10 16 0.00 0.00
12:53 pm 12:53 Sunny 84 28.9 59 15 43 43 S 12 19 29.95 1014 10 16 0.00 0.00
1:53 pm 13:53 Sunny 87 30.6 56 13.3 35 35 S 10 17 29.92 1013 10 16 0.00 0.00
2:53 pm 14:53 Sunny 88 31.1 58 14.4 36 36 VRB 6 9 29.90 1013 10 16 0.00 0.00
3:53 pm 15:53 Sunny 89 31.7 58 14.4 35 35 S 8 13 29.87 1012 10 16 0.00 0.00
4:53 pm 16:53 Sunny 89 31.7 59 15 36 36 SW 9 15 29.85 1011 10 16 0.00 0.00
5:53 pm 17:53 Sunny 90 32.2 59 15 35 35 SSW 8 13 29.84 1011 10 16 0.00 0.00
6:53 pm 18:53 Sunny 89 31.7 60 15.6 38 38 S 5 7 29.83 1010 10 16 0.00 0.00
7:53 pm 19:53 Sunny 85 29.4 60 15.6 43 43 S 3 6 29.83 1010 10 16 0.00 0.00
8:53 pm 20:53 Clear 82 27.8 61 16.1 49 49 SSE 5 7 29.85 1011 10 16 0.00 0.00
9:53 pm 21:53 Clear 80 26.7 58 14.4 47 47 S 8 13 29.85 1011 10 16 0.00 0.00
10:53 pm 22:53 Clear 74 23.3 58 14.4 57 57 S 6 9 29.86 1011 10 16 0.00 0.00
11:53 pm 23:53 Clear 73 22.8 57 13.9 57 57 S 7 11 29.85 1011 10 16 0.00 0.00

Powered by AerisWeather